TimeEST,TemperatureF,Dew PointF,Humidity,Sea Level PressureIn,VisibilityMPH,Wind Direction,Wind SpeedMPH,Gust SpeedMPH,PrecipitationIn,Events,Conditions,WindDirDegrees,DateUTC
12:38 AM,46.4,44.6,93,30.22,8.0,Calm,Calm,-,0.11,Rain,Light Rain,0,2013-01-15 05:38:00
12:47 AM,46.4,44.6,93,30.22,10.0,Calm,Calm,-,0.11,Rain,Light Rain,0,2013-01-15 05:47:00
12:54 AM,48.0,45.0,89,30.22,10.0,Calm,Calm,-,0.12,Rain,Light Rain,0,2013-01-15 05:54:00
1:54 AM,46.9,44.1,90,30.22,5.0,NE,3.5,-,0.09,Rain,Rain,40,2013-01-15 06:54:00
2:54 AM,46.0,43.0,89,30.21,9.0,ESE,9.2,-,0.11,Rain,Light Rain,120,2013-01-15 07:54:00
3:54 AM,44.1,42.1,93,30.19,7.0,SE,8.1,-,0.06,Rain,Light Rain,130,2013-01-15 08:54:00
4:54 AM,44.1,42.1,93,30.19,10.0,East,6.9,-,0.05,Rain,Light Rain,100,2013-01-15 09:54:00
5:54 AM,43.0,41.0,93,30.20,8.0,SE,6.9,-,0.05,Rain,Light Rain,130,2013-01-15 10:54:00
6:52 AM,42.8,41.0,93,30.21,10.0,SE,4.6,-,0.08,Rain,Light Rain,140,2013-01-15 11:52:00
6:54 AM,42.1,41.0,96,30.22,10.0,SE,4.6,-,0.08,Rain,Light Rain,140,2013-01-15 11:54:00
7:54 AM,43.0,41.0,93,30.27,9.0,Calm,Calm,-,0.04,Rain,Light Rain,0,2013-01-15 12:54:00
8:01 AM,42.8,41.0,93,30.25,7.0,Calm,Calm,-,0.00,Rain,Light Rain,0,2013-01-15 13:01:00
8:54 AM,43.0,41.0,93,30.28,9.0,Calm,Calm,-,0.04,Rain,Light Rain,0,2013-01-15 13:54:00
9:54 AM,43.0,41.0,93,30.28,8.0,Calm,Calm,-,0.03,Rain,Light Rain,0,2013-01-15 14:54:00
10:54 AM,44.1,42.1,93,30.27,8.0,ENE,3.5,-,0.02,Rain,Light Rain,60,2013-01-15 15:54:00
11:54 AM,44.1,41.0,89,30.25,7.0,NE,4.6,-,0.04,Rain,Light Rain,50,2013-01-15 16:54:00
12:31 PM,44.6,41.0,87,30.23,6.0,Calm,Calm,-,0.04,Rain,Light Rain,0,2013-01-15 17:31:00
12:54 PM,43.0,41.0,93,30.23,5.0,SE,4.6,-,0.07,Rain,Rain,140,2013-01-15 17:54:00
1:54 PM,43.0,39.9,89,30.20,5.0,SE,6.9,-,0.07,Rain,Light Rain,130,2013-01-15 18:54:00
2:54 PM,43.0,39.9,89,30.22,6.0,SE,5.8,-,0.08,Rain,Light Rain,140,2013-01-15 19:54:00
3:54 PM,42.8,39.2,87,30.20,6.0,SSE,8.1,-,N/A,Rain,Light Rain,160,2013-01-15 20:54:00
4:25 PM,41.0,39.2,93,30.20,2.5,SE,8.1,-,0.05,Rain,Rain,140,2013-01-15 21:25:00
4:36 PM,41.0,39.2,93,30.19,3.0,SE,10.4,-,0.07,Rain,Light Rain,140,2013-01-15 21:36:00
4:47 PM,41.0,39.2,93,30.20,2.5,SE,9.2,-,0.08,Rain,Light Rain,140,2013-01-15 21:47:00
4:54 PM,41.0,39.0,93,30.22,2.5,SSE,6.9,-,0.09,Rain,Light Rain,150,2013-01-15 21:54:00
5:04 PM,41.0,39.2,93,30.21,2.5,SSE,6.9,-,0.02,Rain,Rain,160,2013-01-15 22:04:00
5:54 PM,39.9,39.0,97,30.21,2.5,SSE,9.2,-,0.06,Rain,Light Rain,150,2013-01-15 22:54:00
6:54 PM,39.9,37.9,93,30.20,5.0,SE,6.9,-,0.15,Rain,Rain,140,2013-01-15 23:54:00
7:37 PM,39.2,37.4,93,30.19,2.5,SSE,6.9,-,0.14,Rain,Heavy Rain,150,2013-01-16 00:37:00
7:46 PM,39.2,37.4,93,30.19,3.0,SSE,4.6,-,0.20,Rain,Heavy Rain,150,2013-01-16 00:46:00
7:54 PM,39.0,37.9,96,30.20,4.0,SSE,4.6,-,0.25,Rain,Rain,160,2013-01-16 00:54:00
8:54 PM,39.0,37.9,96,30.17,5.0,SSE,5.8,-,0.13,Rain,Rain,160,2013-01-16 01:54:00
9:33 PM,39.2,37.4,93,30.14,3.0,South,5.8,-,0.07,Rain,Light Rain,180,2013-01-16 02:33:00
9:54 PM,39.0,37.0,93,30.15,3.0,SSE,5.8,-,0.08,Rain,Light Rain,160,2013-01-16 02:54:00
10:54 PM,37.9,37.0,97,30.14,4.0,SSE,5.8,-,0.06,Rain,Light Rain,160,2013-01-16 03:54:00
11:54 PM,37.9,37.0,97,30.12,10.0,South,4.6,-,0.04,Rain,Light Rain,180,2013-01-16 04:54:00